Tracking 29892 objects as of 21-Nov-2024
HD Live streaming from Space Station
objects crossing your sky now

STARLINK-31593

Track STARLINK-31593 now!
10-day predictions
STARLINK-31593 is classified as:


NORAD ID: 59350
Int'l Code: 2024-060C
Perigee: 449.2 km
Apogee: 453.2 km
Inclination: 43.0 °
Period: 93.5 minutes
Semi major axis: 6822 km
RCS: Unknown
Launch date: March 31, 2024
Source: United States (US)
Launch site: AIR FORCE EASTERN TEST RANGE (AFETR)
Your satellite tracking list
Your tracking list is empty




NASA's NSSDC Master Catalog

Two Line Element Set (TLE):
1 59350U 24060C   24325.78325769  .00002381  00000-0  64263-4 0  9996
2 59350  43.0057  69.3334 0002970 274.5938  85.4580 15.40694241 37429
Source of the keplerian elements: AFSPC